Home   Weather   USA   Fargo   Past weeks
Flag for USA

Past Weather in Fargo, North Dakota, USA — Yesterday and Last 2 Weeks

Currently: 36 °F. Fog. (Weather station: Hector International Airport, USA). See more current weather

Past Weather in Fargo — Graph

°F

Fargo Temperature Yesterday

Maximum temperature yesterday: 31 °F (at 3:28 pm)
Minimum temperature yesterday: 25 °F (at 3:53 am)
Average temperature yesterday: 28 °F

High & Low Weather Summary for the Past Weeks

 TemperatureHumidityPressure
High72 °F (Apr 3, 4:53 pm)100% (Apr 9, 3:53 am)30.53 "Hg (Apr 9, 3:53 am)
Low15 °F (Mar 31, 11:53 pm)14% (Apr 3, 4:53 pm)29.53 "Hg (Apr 8, 5:24 pm)
Average41 °F64%29.90 "Hg
* Reported Mar 30 8:53 am — Apr 14 8:53 am, Fargo. Weather by CustomWeather, © 2021

Note: Actual official high and low records may vary slightly from our data, if they occured in-between our weather recording intervals... More about our weather records

Fargo Weather History for the Previous 24 Hours

Scroll right to see more
 ConditionsComfort  
Time TempWeatherWind HumidityBarometerVisibility
8:53 am
Wed, Apr 14
28 °FLight snow. Mostly cloudy.22 mph96%30.30 "Hg7 mi
6:53 am28 °FLow clouds.21 mph96%30.26 "Hg9 mi
5:53 am28 °FLight snow. Ice fog.21 mph96%30.24 "Hg4 mi
5:18 am28 °FLow clouds.22 mph96%30.20 "Hg8 mi
4:53 am28 °FLight snow. Ice fog.17 mph96%30.23 "Hg5 mi
3:53 am28 °FLow clouds.18 mph96%30.21 "Hg10 mi
1:17 am28 °FLow clouds.14 mph93%30.15 "Hg7 mi
12:55 am28 °FLight snow. Ice fog.13 mph93%30.15 "Hg3 mi
11:53 pm
Tue, Apr 13
28 °FLight snow. Ice fog.14 mph93%30.19 "Hg1 mi
11:31 pm28 °FLight snow. Ice fog.15 mph93%30.14 "Hg1 mi
11:16 pm28 °FLight snow. Ice fog.14 mph93%30.14 "Hg1 mi
11:02 pm28 °FLight snow. Ice fog.15 mph93%30.14 "Hg3 mi
10:30 pm28 °FLight snow. Ice fog.16 mph93%30.13 "Hg3 mi
10:01 pm28 °FLight snow. Ice fog.16 mph93%30.12 "Hg2 mi
9:09 pm29 °FLight snow. Ice fog.16 mph89%30.11 "Hg4 mi
8:53 pm29 °FLight snow. Ice fog.20 mph85%30.15 "Hg5 mi
8:03 pm29 °FIce fog.18 mph89%30.10 "Hg5 mi
7:53 pm29 °FMostly cloudy.16 mph89%30.14 "Hg7 mi
6:53 pm30 °FMostly cloudy.20 mph85%30.12 "Hg10 mi
5:53 pm30 °FMostly cloudy.17 mph89%30.10 "Hg9 mi
5:07 pm31 °FMostly cloudy.21 mph82%30.04 "Hg10 mi
4:53 pm31 °FCloudy.20 mph85%30.08 "Hg10 mi
4:21 pm31 °FLight snow. Ice fog.22 mph85%30.03 "Hg3 mi
3:53 pm31 °FLight snow. Ice fog.20 mph89%30.06 "Hg1 mi
3:28 pm31 °FLight snow. Ice fog.18 mph85%30.02 "Hg1 mi
3:17 pm30 °FLight snow. Ice fog.18 mph89%30.02 "Hg1 mi
3:07 pm30 °FLight snow. Ice fog.20 mph89%30.02 "Hg1 mi
2:53 pm30 °FLight snow. Ice fog.17 mph85%30.06 "Hg1 mi
2:32 pm28 °FSnow. Ice fog.17 mph93%30.02 "Hg0 mi
2:04 pm28 °FSnow. Ice fog.21 mph89%30.02 "Hg1 mi
1:53 pm29 °FLight snow. Ice fog.22 mph85%30.06 "Hg1 mi
1:22 pm29 °FLight snow. Ice fog.18 mph85%30.01 "Hg2 mi
12:53 pm29 °FLight snow. Mostly cloudy.22 mph82%30.05 "Hg4 mi
12:40 pm29 °FLight snow. Mostly cloudy.20 mph82%30.00 "Hg3 mi
12:25 pm29 °FLight snow. Ice fog.21 mph85%30.00 "Hg2 mi
12:03 pm29 °FLight snow. Ice fog.18 mph85%30.00 "Hg3 mi
11:55 am29 °FLight snow. Ice fog.22 mph85%30.00 "Hg1 mi
11:17 am28 °FLight snow. Ice fog.21 mph89%29.99 "Hg1 mi
11:01 am28 °FLight snow. Ice fog.18 mph89%29.99 "Hg1 mi
Weather by CustomWeather, © 2021

See weather overview